2018-083D (43665 NORAD) Tracking and Keplerian Element Data

This shows tracking and keplerian element data for the satellite.

Feedback or suggestion? Click here.




ElementValue
Catalog43665
Name2018-083D
Epoch Orbit331
Epoch Day323.86685391
Epoch Year2018
RAAN344.5752
Inclination97.5209
Eccentricity0.0013247
Argument of Perigee190.2236
Mean Anonmoly294.9152
Mean Motion15.16808881
Decay Rate5.9E-06
L11 43665U 18083D 18323.86685391 .00000590 00000-0 33427-4 0 9994
L22 43665 97.5209 344.5752 0013247 190.2236 294.9152 15.16808881 3313

Live tracking and technical data element details for 2018-083D (NORAD 43665). 2018-083D can be tracked NOW for your location showing map with azimuth and elevation plus other details from your city location.

Track the satellite on the map from your city or location and see movement details for azimuth, elevation, latitude, longitude, range, height, and movement on the map or in text.







IsCatalogInMostPopularTable: catalog: 43665, numindb: 6
Update: records affected: 1



GetName: 43665 2018-083D

Hit Count: updated at: Tue, 20 Nov 2018 11:07:29 GMT